CW4482 Weather Reports


Display with metric or nautical units.
time (UTC)temp
F
wind
direction
speed
MPH
gust
MPH
rain 1hr
in
rain 24hr
in
rain mn
in
humidity
%
barometer
mb
20260508011518 74 32 0.0 0.0 0.00 0.00 0.00 79 1013.3
20260508010040 74 36 0.0 0.0 0.00 0.00 0.00 75 1013.0
20260508004521 75 344 0.0 0.0 0.00 0.00 0.00 77 1013.2
20260508003020 75 17 0.0 0.0 0.00 0.00 0.00 78 1013.1
20260508001537 75 24 0.0 0.0 0.00 0.00 0.00 78 1013.2
20260508000016 76 17 0.0 0.0 0.00 0.00 0.00 81 1013.4
20260507234543 76 32 0.0 0.0 0.00 0.00 0.00 79 1013.0
20260507233030 77 28 0.0 0.0 0.00 0.00 0.00 79 1013.0
20260507231532 77 27 0.0 0.0 0.00 0.00 0.00 77 1012.9
20260507230013 77 29 0.0 0.0 0.00 0.00 0.00 80 1012.7
20260507224522 77 5 0.0 0.0 0.00 0.00 0.00 78 1012.8
20260507223026 78 5 0.0 0.0 0.00 0.00 0.00 76 1012.6
20260507221550 80 14 0.0 0.0 0.00 0.00 0.00 69 1012.9
20260507220019 80 36 0.0 0.0 0.00 0.00 0.00 71 1013.1
20260507214522 80 19 0.0 0.0 0.00 0.00 0.00 71 1013.0
20260507213025 80 19 0.0 0.0 0.00 0.00 0.00 74 1013.2
20260507211524 79 22 0.0 0.0 0.00 0.00 0.00 72 1013.3
20260507210038 78 5 0.0 0.0 0.00 0.00 0.00 74 1013.3
20260507204528 77 32 0.0 0.0 0.00 0.00 0.00 77 1013.5
20260507203029 77 24 0.0 0.0 0.00 0.00 0.00 72 1013.7
20260507201530 78 22 0.0 0.0 0.00 0.00 0.00 77 1013.7
20260507200047 78 38 0.0 0.0 0.00 0.00 0.00 76 1014.0
20260507194530 77 360 0.0 0.0 0.00 0.00 0.00 72 1014.2
20260507193023 77 45 0.0 0.0 0.00 0.00 0.00 75 1014.3
20260507191523 77 355 0.0 0.0 0.00 0.00 0.00 73 1014.6
20260507190022 76 355 0.0 0.0 0.00 0.00 0.00 71 1014.6
20260507184528 76 30 0.0 0.0 0.00 0.00 0.00 76 1014.7
20260507183013 76 12 0.0 0.0 0.00 0.00 0.00 76 1014.7
20260507181524 75 11 0.0 0.0 0.00 0.00 0.00 76 1015.0
20260507180030 73 26 0.0 0.0 0.00 0.00 0.00 80 1015.1
20260507174557 73 30 0.0 0.0 0.00 0.00 0.00 79 1015.4
20260507173057 73 5 0.0 0.0 0.00 0.00 0.00 76 1015.5
20260507171513 72 360 0.0 0.0 0.00 0.00 0.00 77 1015.8
20260507170018 72 20 0.0 0.0 0.00 0.00 0.00 80 1015.7
20260507164526 70 43 0.0 0.0 0.00 0.00 0.00 80 1015.5
20260507163031 69 5 0.0 0.0 0.00 0.00 0.00 79 1015.2
20260507161529 68 28 0.0 0.0 0.00 0.00 0.00 81 1015.5
20260507160023 67 26 0.0 0.0 0.00 0.00 0.00 82 1015.8
20260507154523 66 51 0.0 0.0 0.00 0.00 0.00 81 1015.8
20260507153028 66 329 0.0 0.0 0.00 0.00 0.00 82 1015.9
20260507151532 65 16 0.0 0.0 0.00 0.00 0.00 85 1015.7
20260507150032 64 336 0.0 0.0 0.00 0.00 0.00 85 1015.8
20260507144511 64 22 0.0 0.0 0.00 0.00 0.00 85 1015.4
20260507143021 64 41 0.0 3.0 0.00 0.00 0.00 86 1015.2
20260507141550 64 29 1.0 4.0 0.00 0.00 0.00 87 1015.4
20260507140035 64 5 2.0 4.0 0.00 0.00 0.00 86 1015.7
20260507134515 64 338 0.0 2.0 0.00 0.00 0.00 87 1015.6
20260507133021 64 327 0.0 0.0 0.00 0.00 0.00 86 1015.9
20260507131526 64 5 0.0 0.0 0.00 0.00 0.00 86 1015.8
20260507130028 64 347 0.0 0.0 0.00 0.00 0.00 85 1015.5
20260507124517 64 312 0.0 0.0 0.00 0.00 0.00 85 1015.3
20260507123016 65 22 0.0 0.0 0.00 0.00 0.00 86 1014.7
20260507121522 65 327 0.0 0.0 0.00 0.00 0.00 86 1014.7
20260507120048 65 32 0.0 0.0 0.00 0.00 0.00 85 1014.6
20260507114514 65 5 0.0 0.0 0.00 0.00 0.00 86 1014.0
20260507113038 65 9 0.0 0.0 0.00 0.00 0.00 86 1013.9
20260507111512 65 31 0.0 0.0 0.00 0.00 0.00 85 1013.5
20260507110018 66 17 0.0 0.0 0.00 0.00 0.00 85 1013.5
20260507104537 66 74 0.0 0.0 0.00 0.00 0.00 85 1013.4
20260507103020 67 5 0.0 0.0 0.00 0.00 0.00 85 1013.3
20260507101518 67 62 0.0 0.0 0.00 0.00 0.00 85 1013.2
20260507100014 67 31 0.0 0.0 0.00 0.00 0.00 86 1012.8
20260507094536 68 50 0.0 0.0 0.00 0.00 0.00 85 1012.5
20260507093034 68 42 0.0 0.0 0.00 0.00 0.00 85 1012.8
20260507091556 68 346 0.0 0.0 0.00 0.00 0.00 86 1012.7
20260507090033 69 349 0.0 0.0 0.00 0.00 0.00 85 1012.7
20260507084526 69 360 0.0 0.0 0.00 0.00 0.00 85 1012.7
20260507083043 69 5 1.0 3.0 0.00 0.00 0.00 85 1012.6
20260507081525 70 350 1.0 4.0 0.00 0.00 0.00 86 1012.5
20260507080025 70 38 1.0 3.0 0.00 0.00 0.00 85 1012.5
20260507074527 70 5 2.0 4.0 0.00 0.00 0.00 85 1012.7
20260507073020 70 5 0.0 0.0 0.00 0.00 0.00 85 1012.8
20260507071524 70 360 0.0 0.0 0.00 0.00 0.00 85 1012.7
20260507070046 70 13 0.0 0.0 0.00 0.00 0.00 85 1012.8
20260507064525 70 24 0.0 0.0 0.00 0.00 0.00 84 1012.9
20260507063024 70 34 0.0 0.0 0.00 0.00 0.00 84 1012.4
20260507061522 71 15 0.0 0.0 0.00 0.00 0.00 84 1012.7
20260507060040 71 345 0.0 0.0 0.00 0.00 0.00 84 1012.4
20260507054519 71 300 0.0 0.0 0.00 0.00 0.00 84 1012.2
20260507053013 71 14 0.0 0.0 0.00 0.00 0.00 84 1012.4
20260507051512 72 360 0.0 0.0 0.00 0.00 0.00 84 1012.5
20260507050031 72 9 0.0 0.0 0.00 0.00 0.00 84 1012.3
20260507044531 72 324 0.0 0.0 0.00 0.00 0.00 84 1012.2
20260507043030 73 355 0.0 0.0 0.00 0.00 0.00 84 1012.3
20260507041525 73 328 0.0 0.0 0.00 0.00 0.00 85 1012.4
20260507040020 73 12 0.0 0.0 0.00 0.00 0.00 85 1012.2
20260507034519 74 46 0.0 0.0 0.00 0.00 0.00 85 1011.9
20260507033017 74 355 0.0 0.0 0.00 0.00 0.00 84 1011.6
20260507031536 75 337 0.0 0.0 0.00 0.00 0.00 86 1011.3
20260507030032 76 313 0.0 0.0 0.00 0.00 0.00 87 1011.0
20260507024512 77 5 0.0 0.0 0.00 0.00 0.00 86 1010.4
20260507023036 78 5 0.0 0.0 0.00 0.00 0.00 89 1010.1
20260507021521 79 216 0.0 0.0 0.00 0.00 0.00 88 1009.9
20260507020042 80 159 0.0 0.0 0.00 0.00 0.00 89 1010.0
20260507014532 80 159 0.0 0.0 0.00 0.00 0.00 90 1009.6
20260507013018 80 159 0.0 0.0 0.00 0.00 0.00 89 1009.2